Weather History for Bloomington, IN

Change the Weather History Date:

Friday, February 8, 2013

  Actual Average Record
Temperature  
Mean Temperature 39 °F 31 °F  
Max Temperature 46 °F 41 °F 60 °F (2001)
Min Temperature 31 °F 22 °F 3 °F (2003)
Degree Days  
Heating Degree Days 26 34  
Month to date heating degree days 294 274  
Since 1 July heating degree days 3338 3449  
Cooling Degree Days 0 0  
Month to date cooling degree days 0 0  
Year to date cooling degree days 0 0  
Moisture  
Dew Point 28 °F    
Average Humidity 78    
Maximum Humidity 93    
Minimum Humidity 63    
Precipitation  
Precipitation T in 0.11 in 0.20 in (2001)
Month to date precipitation 0.23 0.84  
Year to date precipitation 5.69 4.15  
Sea Level Pressure  
Sea Level Pressure 30.14 in    
Wind  
Wind Speed 8 mph (NNW)    
Max Wind Speed 15 mph    
Max Gust Speed 24 mph    
Visibility 10 miles    
Events Rain    
T = Trace of Precipitation, MM = Missing Value Source: NWS Daily Summary

Daily Weather History Graph

Daily Weather History Graph

Search for Another Location

Airport:

Trip Planner

Search our weather history database for the weather conditions in past years. The results will help you decide how hot, cold, wet, or windy it might be!

Date:

Astronomy

Feb. 08, 2013 Rise Set
Actual Time 7:45 AM EST 6:15 PM EST
Civil Twilight 7:18 AM EST 6:43 PM EST
Nautical Twilight 6:46 AM EST 7:15 PM EST
Astronomical Twilight 6:15 AM EST 7:46 PM EST
Moon 6:13 AM EST (2/8) 4:49 PM EST (2/8)
Length of Visible Light 11h 25m
Length of Day
10h 29m
Waning Crescent, 3% of the Moon is Illuminated
Feb 8
Waning Crescent
Feb 10
New
Feb 17
First Quarter
Feb 25
Full
Mar 4
Last Quarter

Hourly Weather History & Observations

Time (EST) Temp. Windchill Dew Point Humidity Pressure Visibility Wind Dir Wind Speed Gust Speed Precip Events Conditions
12:53 AM 43.0 °F 37.2 °F 39.9 °F 89% 29.87 in 10.0 mi WNW 10.4 mph 20.7 mph 0.00 in   Overcast
1:48 AM 39.2 °F 32.5 °F 35.6 °F 87% 29.88 in 10.0 mi NW 10.4 mph 21.9 mph 0.00 in Rain Light Rain
1:53 AM 39.9 °F 33.4 °F 36.0 °F 86% 29.89 in 10.0 mi NW 10.4 mph 17.3 mph 0.00 in Rain Light Rain
2:04 AM 39.2 °F 32.5 °F 35.6 °F 87% 29.89 in 10.0 mi NW 10.4 mph - 0.00 in Rain Light Rain
2:53 AM 37.0 °F 29.8 °F 33.1 °F 86% 29.91 in 10.0 mi WNW 10.4 mph 18.4 mph 0.00 in   Overcast
3:53 AM 37.0 °F 31.6 °F 32.0 °F 82% 29.94 in 10.0 mi WNW 6.9 mph - N/A   Overcast
4:53 AM 36.0 °F 29.6 °F 30.9 °F 82% 29.96 in 10.0 mi NNW 8.1 mph - N/A   Overcast
5:53 AM 35.1 °F 28.6 °F 28.9 °F 78% 30.00 in 10.0 mi NNW 8.1 mph 18.4 mph N/A   Overcast
6:53 AM 34.0 °F 27.2 °F 28.9 °F 82% 30.03 in 10.0 mi NW 8.1 mph - N/A   Overcast
7:53 AM 34.0 °F 26.6 °F 28.9 °F 82% 30.06 in 10.0 mi NW 9.2 mph 18.4 mph N/A   Overcast
8:53 AM 33.1 °F 26.1 °F 28.0 °F 82% 30.10 in 10.0 mi NW 8.1 mph - N/A   Overcast
9:53 AM 33.1 °F 25.5 °F 27.0 °F 78% 30.14 in 10.0 mi NW 9.2 mph - N/A   Overcast
10:37 AM 33.8 °F 26.4 °F 26.6 °F 75% 30.15 in 10.0 mi NNW 9.2 mph 18.4 mph N/A   Overcast
10:53 AM 33.1 °F 24.9 °F 27.0 °F 78% 30.17 in 10.0 mi NNW 10.4 mph 17.3 mph N/A   Overcast
11:53 AM 33.1 °F 24.9 °F 26.1 °F 75% 30.20 in 10.0 mi North 10.4 mph 17.3 mph N/A   Overcast
12:53 PM 33.1 °F 25.5 °F 26.1 °F 75% 30.20 in 10.0 mi NNW 9.2 mph 20.7 mph N/A   Overcast
1:53 PM 33.1 °F 26.9 °F 26.1 °F 75% 30.22 in 10.0 mi NW 6.9 mph - N/A   Overcast
2:53 PM 33.1 °F 26.1 °F 26.1 °F 75% 30.24 in 10.0 mi NNW 8.1 mph - N/A   Overcast
3:53 PM 33.1 °F 26.1 °F 25.0 °F 72% 30.25 in 10.0 mi NW 8.1 mph - N/A   Overcast
4:53 PM 33.1 °F 28.7 °F 26.1 °F 75% 30.27 in 10.0 mi NNW 4.6 mph - N/A   Overcast
5:53 PM 33.1 °F 26.9 °F 25.0 °F 72% 30.30 in 10.0 mi Variable 6.9 mph - N/A   Overcast
6:53 PM 33.1 °F 27.7 °F 25.0 °F 72% 30.32 in 10.0 mi NNW 5.8 mph - N/A   Overcast
7:53 PM 33.1 °F 28.7 °F 24.1 °F 70% 30.34 in 10.0 mi NNW 4.6 mph - N/A   Overcast
8:53 PM 33.1 °F 24.9 °F 24.1 °F 70% 30.35 in 10.0 mi North 10.4 mph - N/A   Overcast
9:53 PM 32.0 °F 24.2 °F 24.1 °F 73% 30.34 in 10.0 mi North 9.2 mph - N/A   Overcast
10:53 PM 32.0 °F 24.8 °F 21.9 °F 66% 30.36 in 10.0 mi NE 8.1 mph - N/A   Overcast
11:53 PM 30.9 °F 25.2 °F 23.0 °F 72% 30.37 in 10.0 mi NNE 5.8 mph - N/A   Overcast